Time,TemperatureF,DewpointF,PressureIn,WindDirection,WindDirectionDegrees,WindSpeedMPH,WindSpeedGustMPH,Humidity,HourlyPrecipIn,Conditions,Clouds,dailyrainin,SoftwareType,DateUTC
2014-10-21 00:00:00,70.2,68.1,29.97,SE,132,0.0,0.0,93,0.00,,---,0.00,VWS V15.00,2014-10-21 04:00:00,
2014-10-21 00:15:00,70.1,68.3,29.97,SE,132,0.0,0.0,94,0.00,,---,0.00,VWS V15.00,2014-10-21 04:15:00,
2014-10-21 00:30:00,69.9,68.1,29.97,SE,132,0.0,0.0,94,0.00,,---,0.00,VWS V15.00,2014-10-21 04:30:00,
2014-10-21 00:45:00,69.8,68.3,29.97,SE,132,0.0,0.0,95,0.00,,---,0.00,VWS V15.00,2014-10-21 04:45:00,
2014-10-21 01:00:00,69.8,68.3,29.97,SE,132,0.0,0.0,95,0.00,,---,0.00,VWS V15.00,2014-10-21 05:00:00,
2014-10-21 01:15:00,69.7,68.2,29.96,SE,132,0.0,0.0,95,0.00,,---,0.00,VWS V15.00,2014-10-21 05:15:00,
2014-10-21 01:30:00,69.7,68.2,29.95,SE,132,0.0,0.0,95,0.00,,---,0.00,VWS V15.00,2014-10-21 05:30:00,
2014-10-21 01:45:00,69.8,68.3,29.94,SE,132,0.0,0.0,95,0.00,,---,0.00,VWS V15.00,2014-10-21 05:45:00,
2014-10-21 02:00:00,69.8,68.6,29.94,SE,132,0.0,0.0,96,0.00,,---,0.00,VWS V15.00,2014-10-21 06:00:00,
2014-10-21 02:15:00,69.9,68.4,29.93,SE,132,0.0,0.0,95,0.00,,---,0.00,VWS V15.00,2014-10-21 06:15:00,
2014-10-21 02:30:00,70.0,68.5,29.93,SE,132,0.0,0.0,95,0.00,,---,0.00,VWS V15.00,2014-10-21 06:30:00,
2014-10-21 02:45:00,69.9,68.4,29.92,SE,132,0.0,0.0,95,0.00,,---,0.00,VWS V15.00,2014-10-21 06:45:00,
2014-10-21 03:00:00,70.0,68.8,29.92,SE,132,0.0,0.0,96,0.00,,---,0.00,VWS V15.00,2014-10-21 07:00:00,
2014-10-21 03:15:00,70.0,68.8,29.92,SE,132,0.0,0.0,96,0.00,,---,0.00,VWS V15.00,2014-10-21 07:15:00,
2014-10-21 03:30:00,69.8,68.6,29.91,SE,132,0.0,0.0,96,0.00,,---,0.00,VWS V15.00,2014-10-21 07:30:00,
2014-10-21 03:45:00,69.7,68.5,29.92,SE,132,0.0,0.0,96,0.00,,---,0.00,VWS V15.00,2014-10-21 07:45:00,
2014-10-21 04:00:00,69.8,68.6,29.91,SE,132,0.0,0.0,96,0.00,,---,0.00,VWS V15.00,2014-10-21 08:00:00,
2014-10-21 04:15:00,70.0,69.1,29.91,SE,132,0.0,0.0,97,0.00,,---,0.00,VWS V15.00,2014-10-21 08:15:00,
2014-10-21 04:30:00,70.1,69.2,29.91,SE,132,0.0,0.0,97,0.00,,---,0.00,VWS V15.00,2014-10-21 08:30:00,
2014-10-21 04:45:00,70.3,69.4,29.91,SE,132,0.0,0.0,97,0.00,,---,0.00,VWS V15.00,2014-10-21 08:45:00,
2014-10-21 05:00:00,70.4,69.5,29.91,SE,132,0.0,0.0,97,0.00,,---,0.00,VWS V15.00,2014-10-21 09:00:00,
2014-10-21 05:15:00,70.4,69.5,29.92,SE,132,0.0,0.0,97,0.00,,---,0.00,VWS V15.00,2014-10-21 09:15:00,
2014-10-21 05:30:00,70.6,69.7,29.92,SE,132,0.0,0.0,97,0.00,,---,0.00,VWS V15.00,2014-10-21 09:30:00,
2014-10-21 05:45:00,70.9,70.0,29.92,SE,132,0.0,0.0,97,0.00,,---,0.00,VWS V15.00,2014-10-21 09:45:00,
2014-10-21 06:00:00,71.0,69.8,29.92,SE,132,0.0,0.0,96,0.00,,---,0.00,VWS V15.00,2014-10-21 10:00:00,
2014-10-21 06:15:00,70.8,69.6,29.92,SE,132,0.0,0.0,96,0.00,,---,0.00,VWS V15.00,2014-10-21 10:15:00,
2014-10-21 06:30:00,70.6,69.4,29.93,SE,132,0.0,0.0,96,0.00,,---,0.00,VWS V15.00,2014-10-21 10:30:00,
2014-10-21 06:45:00,70.5,69.6,29.93,SE,132,0.0,0.0,97,0.00,,---,0.00,VWS V15.00,2014-10-21 10:45:00,
2014-10-21 07:00:00,70.4,69.5,29.93,SE,132,0.0,0.0,97,0.00,,---,0.00,VWS V15.00,2014-10-21 11:00:00,
2014-10-21 07:15:00,70.4,69.5,29.93,SE,132,0.0,0.0,97,0.00,,---,0.00,VWS V15.00,2014-10-21 11:15:00,
2014-10-21 07:30:00,70.4,69.5,29.93,SE,132,0.0,0.0,97,0.00,,---,0.00,VWS V15.00,2014-10-21 11:30:00,
2014-10-21 07:45:00,70.4,69.8,29.93,SE,132,0.0,0.0,98,0.00,,---,0.00,VWS V15.00,2014-10-21 11:45:00,
2014-10-21 08:00:00,70.7,70.1,29.94,SE,132,0.0,0.0,98,0.00,,---,0.00,VWS V15.00,2014-10-21 12:00:00,
2014-10-21 08:15:00,71.2,70.6,29.94,SE,132,0.0,0.0,98,0.00,,---,0.00,VWS V15.00,2014-10-21 12:15:00,
2014-10-21 08:30:00,71.7,70.8,29.94,SE,132,0.0,0.0,97,0.00,,---,0.00,VWS V15.00,2014-10-21 12:30:00,
2014-10-21 08:45:00,72.2,71.3,29.95,SE,132,0.0,0.0,97,0.00,,---,0.00,VWS V15.00,2014-10-21 12:45:00,
2014-10-21 09:00:00,72.9,72.0,29.95,SE,132,0.0,0.0,97,0.00,,---,0.00,VWS V15.00,2014-10-21 13:00:00,
2014-10-21 09:15:00,73.7,72.5,29.96,SE,132,0.0,0.0,96,0.00,,---,0.00,VWS V15.00,2014-10-21 13:15:00,
2014-10-21 09:30:00,74.3,73.1,29.97,SE,132,0.0,0.0,96,0.00,,---,0.00,VWS V15.00,2014-10-21 13:30:00,
2014-10-21 09:45:00,75.6,73.8,29.97,SE,132,0.0,0.0,94,0.00,,---,0.00,VWS V15.00,2014-10-21 13:45:00,
2014-10-21 10:00:00,76.8,73.7,29.97,SE,132,0.0,0.0,90,0.00,,---,0.00,VWS V15.00,2014-10-21 14:00:00,
2014-10-21 10:15:00,78.1,74.3,29.97,SE,132,0.0,0.0,88,0.00,,---,0.00,VWS V15.00,2014-10-21 14:15:00,
2014-10-21 10:30:00,79.3,73.7,29.97,SE,132,0.0,0.0,83,0.00,,---,0.00,VWS V15.00,2014-10-21 14:30:00,
2014-10-21 10:45:00,80.2,73.8,29.97,SE,132,0.0,0.0,81,0.00,,---,0.00,VWS V15.00,2014-10-21 14:45:00,
2014-10-21 11:00:00,79.9,73.6,29.97,SE,132,0.0,0.0,81,0.00,,---,0.00,VWS V15.00,2014-10-21 15:00:00,
2014-10-21 11:15:00,80.0,74.7,29.97,SE,133,0.0,0.0,84,0.00,,---,0.00,VWS V15.00,2014-10-21 15:15:00,
2014-10-21 11:30:00,79.7,74.1,29.97,SSE,161,0.0,0.0,83,0.00,,---,0.00,VWS V15.00,2014-10-21 15:30:00,